Showing default

KANOPUS-V 4, 43181

Orbit data source: Space-Track

KANOPUS-V 4, 43181 is a payload satellite owned by VNIIEM (CIS) in SSO that was launched on Thu, 01 Feb 2018 UTC via a SOYUZ-2-1A launch vehicle from the Vostochny Cosmodrome (VOSTO). Payload-class satellites include a variety of spacecraft equipped with specific instruments for various scientific and technological missions. These include communications satellites like Starlink; space stations such as the ISS; scientific satellites like the Hubble; Earth observation satellites from companies like Planet Labs, Umbra, and HawkEye 360; GPS; miniature CubeSats for education and research; and military/defense satellites.

Loading next visibility...
Identifier
43181, 2018-014B
Orbit
SSO
Country
Flag of CISCIS
Related business
Manufacturer
VNIIEM
Mission
Operational Civil Imaging
Bus & Motor
KANOPUS, Unknown motor
Mass
490 kg wet, 490 kg dry
Launch date (UTC)
2018-02-01 (8 years ago)
Launch vehicle
SOYUZ-2-1A
Launch site
Vostochny Cosmodrome (VOSTO)
Object type
Payload
Rocket body
Debris
Shape & HBR
Box + 2 Pan, 3.0 m
Radar Cross Section
1.665 m², Large (>1 m²)

Expand to show TLE details & history
Last TLE update: 9 hours ago

TLE from 9 hours ago
0 KANOPUS-V 4
1 43181U 18014B   26103.97846480  .00000035  00000-0  44303-5 0  9996
2 43181  97.3630  10.9505 0001799  96.8984 263.2457 15.22661429454962
Epoch: 2026-04-13T23:28Z
TLE epoch observation values (Epoch: 2026-04-13T23:28:59.358Z)
Latitude
-0.00008°
Longitude
176.54187°
Altitude
501.058 km
Speed
7.614 km/s
True Right ascension
00h 43m 48s
True Declination
0° 00' 00"
Sunlit
Object was in daylight at epoch
Visualization orbit readout
Latitude
Unknown
Longitude
Unknown
Altitude
Unknown
Speed
Unknown
Apparent Right ascension
Unknown
Apparent Declination
Unknown
Sunlit
N/A
Visualization observer readout
Local Sidereal Time
15:00:03
Azimuth
Unknown
Elevation
Unknown
Doppler factor
Unknown
Orbital elements
Apogee altitude
496.014 km
Perigee altitude
493.541 km
Semi-major axis
6,872.914 km
Eccentricity
0.00018
Inclination
97.363°
RAAN
10.9505°
Arg. of periapsis
96.8984°
True anomaly
263.22523°
Mean anomaly
263.2457°
Eccentric anomaly
263.23546°
Mean motion
3.80918 °/min
Orbital period
94.51 mins
BSTAR
0.0000044303
Loading maneuver chart data...
Computing Atmospheric mass density...
Loading historical data...
Loading historical data...
Loading historical data...
Loading historical data...
Loading historical data...
Loading historical data...
Loading historical data...

Documentation

Showing up to 5 results
|